2023/09/09 00:00:00,21.1,20.5
2023/09/09 00:10:00,21.1,20.5
2023/09/09 00:20:00,20.9,20.4
2023/09/09 00:30:00,20.9,20.4
2023/09/09 00:40:00,21.2,20.5
2023/09/09 00:50:00,21.3,20.7
2023/09/09 01:00:00,21.4,20.2
2023/09/09 01:10:00,21.6,20.5
2023/09/09 01:20:00,21.7,20.5
2023/09/09 01:30:00,21.8,20.5
2023/09/09 01:40:00,21.9,20.5
2023/09/09 01:50:00,22.1,20.5
2023/09/09 02:00:00,22.2,20.6
2023/09/09 02:10:00,22.3,20.4
2023/09/09 02:20:00,22.4,20.5
2023/09/09 02:30:00,22.4,20.7
2023/09/09 02:40:00,22.5,20.5
2023/09/09 02:50:00,22.6,20.5
2023/09/09 03:00:00,22.6,20.5
2023/09/09 03:10:00,22.3,20.6
2023/09/09 03:20:00,21.7,20.6
2023/09/09 03:30:00,21.8,20.6
2023/09/09 03:40:00,21.9,20.4
2023/09/09 03:50:00,22.1,20.6
2023/09/09 04:00:00,22.2,20.5
2023/09/09 04:10:00,21.5,20.5
2023/09/09 04:20:00, 0.2,20.5
2023/09/09 04:30:00, 0.0,20.5
2023/09/09 04:40:00, 0.0,20.6
2023/09/09 04:50:00, 0.0,20.5
2023/09/09 05:00:00,---,20.5
2023/09/09 05:10:00,22.2,20.7
2023/09/09 05:20:00,22.1,20.7
2023/09/09 05:30:00,21.9,20.5
2023/09/09 05:40:00,21.7,20.6
2023/09/09 05:50:00,21.4,20.5
2023/09/09 06:00:00,21.4,20.5
2023/09/09 06:10:00,---,20.5
2023/09/09 06:20:00, 1.8,20.6
2023/09/09 06:30:00, 0.0,20.7
2023/09/09 06:40:00, 0.0,20.7
2023/09/09 06:50:00, 0.0,20.9
2023/09/09 07:00:00, 0.0,21.2
2023/09/09 07:10:00, 0.0,20.9
2023/09/09 07:20:00, 0.0,21.3
2023/09/09 07:30:00, 0.0,21.6
2023/09/09 07:40:00, 9.4,21.9
2023/09/09 07:50:00,22.0,22.0
2023/09/09 08:00:00,22.2,22.8
2023/09/09 08:10:00,22.4,22.9
2023/09/09 08:20:00,22.5,22.9
2023/09/09 08:30:00,22.6,23.2
2023/09/09 08:40:00,22.7,23.2
2023/09/09 08:50:00,22.9,23.6
2023/09/09 09:00:00,22.7,23.9
2023/09/09 09:10:00,22.7,24.0
2023/09/09 09:20:00,22.7,23.7
2023/09/09 09:30:00,22.9,24.0
2023/09/09 09:40:00,23.2,24.0
2023/09/09 09:50:00,23.0,24.1
2023/09/09 10:00:00,22.8,24.6
2023/09/09 10:10:00,22.9,25.2
2023/09/09 10:20:00,22.5,25.6
2023/09/09 10:30:00,22.6,25.5
2023/09/09 10:40:00,22.5,25.2
2023/09/09 10:50:00,22.4,26.6
2023/09/09 11:00:00,22.7,25.7
2023/09/09 11:10:00,22.9,24.6
2023/09/09 11:20:00,23.0,24.5
2023/09/09 11:30:00,23.1,24.2
2023/09/09 11:40:00,23.2,24.3
2023/09/09 11:50:00,23.1,24.4
2023/09/09 12:00:00,13.2,24.1
2023/09/09 12:10:00,20.8,23.9
2023/09/09 12:20:00,22.2,23.8
2023/09/09 12:30:00,22.4,24.1
2023/09/09 12:40:00,22.1,24.4
2023/09/09 12:50:00,17.6,24.1
2023/09/09 13:00:00,13.0,23.6
2023/09/09 13:10:00,13.4,23.4
2023/09/09 13:20:00,14.3,23.6
2023/09/09 13:30:00,13.8,24.9
2023/09/09 13:40:00,14.2,24.4
2023/09/09 13:50:00,11.0,23.7
2023/09/09 14:00:00, 0.0,24.7
2023/09/09 14:10:00, 7.4,25.4
2023/09/09 14:20:00,12.7,25.0
2023/09/09 14:30:00,20.4,25.0
2023/09/09 14:40:00,14.9,25.0
2023/09/09 14:50:00, 5.7,25.0
2023/09/09 15:00:00,10.2,24.6
2023/09/09 15:10:00, 0.2,24.0
2023/09/09 15:20:00, 9.4,23.5
2023/09/09 15:30:00,15.7,23.4
2023/09/09 15:40:00,15.6,23.4
2023/09/09 15:50:00,14.7,23.3
2023/09/09 16:00:00,12.4,23.3
2023/09/09 16:10:00, 2.4,23.2
2023/09/09 16:20:00, 6.0,23.3
2023/09/09 16:30:00, 7.5,23.4
2023/09/09 16:40:00,16.3,23.6
2023/09/09 16:50:00,20.2,23.7
2023/09/09 17:00:00,19.9,23.7
2023/09/09 17:10:00,20.8,23.3
2023/09/09 17:20:00,21.1,23.5
2023/09/09 17:30:00,21.2,23.4
2023/09/09 17:40:00,21.3,23.0
2023/09/09 17:50:00,21.2,22.9
2023/09/09 18:00:00,21.1,22.8
2023/09/09 18:10:00,20.9,22.7
2023/09/09 18:20:00,20.6,22.3
2023/09/09 18:30:00,20.0,22.4
2023/09/09 18:40:00,19.8,22.1
2023/09/09 18:50:00,19.5,21.9
2023/09/09 19:00:00,18.5,21.8
2023/09/09 19:10:00,17.5,21.8
2023/09/09 19:20:00,16.7,21.8
2023/09/09 19:30:00,16.2,22.0
2023/09/09 19:40:00,16.0,21.7
2023/09/09 19:50:00,16.0,21.8
2023/09/09 20:00:00,15.8,21.8
2023/09/09 20:10:00,16.1,21.7
2023/09/09 20:20:00,17.1,21.8
2023/09/09 20:30:00,18.1,21.9
2023/09/09 20:40:00,18.9,21.8
2023/09/09 20:50:00,19.1,21.7
2023/09/09 21:00:00,18.7,21.6
2023/09/09 21:10:00,18.1,22.0
2023/09/09 21:20:00,14.9,21.4
2023/09/09 21:30:00, 7.8,21.4
2023/09/09 21:40:00, 1.1,21.4
2023/09/09 21:50:00, 0.0,21.3
2023/09/09 22:00:00, 0.0,21.3
2023/09/09 22:10:00, 0.0,21.4
2023/09/09 22:20:00, 0.0,21.4
2023/09/09 22:30:00, 0.0,21.4
2023/09/09 22:40:00, 0.0,21.3
2023/09/09 22:50:00, 0.0,21.3
2023/09/09 23:00:00, 0.0,21.3
2023/09/09 23:10:00, 0.0,21.2
2023/09/09 23:20:00, 0.0,21.1
2023/09/09 23:30:00, 0.0,21.1
2023/09/09 23:40:00, 0.0,20.9
2023/09/09 23:50:00, 0.0,20.8
